^^
Saratoga-Weather Station Historical Data
Daily Summary for March 2, 2021 Units:  English    Metric   Both
Daily Weekly Monthly Yearly Custom
  High: Low: Average:
Temperature: 81.1 °F 55.2 °F 66.4 °F
Dew Point: 65.1 °F 46 °F 53.8 °F
Humidity: 92% 52% 65%
Wind Speed: 10.1mph 0mph 1.4mph
Wind Gust: 10mph - -
Wind- - SE
Pressure: 29.9 in 29.9 in -
Precipitation: 0.33 in    
Historical Graphs
 
 
Tabular Data for March 2, 2021
Time Temperature Dew Point Pressure Wind Wind Speed Wind Gust Humidity Rainfall Rate (Hourly) solar
00:02 60.1 °F 48.2 °F 29.9 in Calm     65% 0 in 0 W/m2
00:07 59.7 °F 48 °F 29.9 in Calm     65% 0 in 0 W/m2
00:12 59.5 °F 48.2 °F 29.9 in Calm     66% 0 in 0 W/m2
00:17 59.4 °F 47.7 °F 29.9 in Calm     65% 0 in 0 W/m2
00:22 59.2 °F 47.8 °F 29.9 in SSE 0.9 mph 1 mph 66% 0 in 0 W/m2
00:27 58.8 °F 47.5 °F 29.9 in SSE 0.9 mph 3 mph 66% 0 in 0 W/m2
00:32 58.6 °F 47.7 °F 29.9 in Calm   3 mph 67% 0 in 0 W/m2
00:37 58.6 °F 47.7 °F 29.9 in Calm   3 mph 67% 0 in 0 W/m2
00:42 58.5 °F 47.5 °F 29.9 in Calm   1 mph 67% 0 in 0 W/m2
00:47 58.5 °F 47.5 °F 29.9 in Calm   1 mph 67% 0 in 0 W/m2
00:52 58.3 °F 47.3 °F 29.9 in Calm   1 mph 67% 0 in 0 W/m2
00:57 57.9 °F 47.5 °F 29.9 in Calm   3 mph 68% 0 in 0 W/m2
01:02 57.9 °F 46.9 °F 29.9 in Calm   1 mph 67% 0 in 0 W/m2
01:07 57.7 °F 47.3 °F 29.9 in Calm   4 mph 68% 0 in 0 W/m2
01:12 57.6 °F 47.1 °F 29.9 in SSE 0.9 mph 3 mph 68% 0 in 0 W/m2
01:17 57.6 °F 47.1 °F 29.9 in Calm   1 mph 68% 0 in 0 W/m2
01:22 57.6 °F 47.1 °F 29.9 in Calm   3 mph 68% 0 in 0 W/m2
01:27 57.6 °F 47.1 °F 29.9 in Calm     68% 0 in 0 W/m2
01:32 57.6 °F 46.8 °F 29.9 in Calm   3 mph 67% 0 in 0 W/m2
01:38 57.6 °F 47.1 °F 29.9 in Calm   3 mph 68% 0 in 0 W/m2
01:43 57.6 °F 46.8 °F 29.9 in SSE 0.9 mph 1 mph 67% 0 in 0 W/m2
01:48 57.6 °F 47.1 °F 29.9 in SSE 0.9 mph 3 mph 68% 0 in 0 W/m2
01:53 57.4 °F 46.9 °F 29.9 in Calm   1 mph 68% 0 in 0 W/m2
01:58 57.4 °F 46.9 °F 29.9 in SSE 0.9 mph 1 mph 68% 0 in 0 W/m2
02:03 57.2 °F 46.8 °F 29.9 in Calm     68% 0 in 0 W/m2
02:08 57 °F 46.6 °F 29.9 in Calm     68% 0 in 0 W/m2
02:13 57 °F 46.6 °F 29.9 in Calm     68% 0 in 0 W/m2
02:18 57 °F 46.6 °F 29.9 in Calm     68% 0 in 0 W/m2
02:23 57 °F 46.6 °F 29.9 in SSE 0.9 mph 3 mph 68% 0 in 0 W/m2
02:28 57 °F 46.6 °F 29.9 in SSE 0.9 mph 1 mph 68% 0 in 0 W/m2
02:33 57 °F 46.9 °F 29.9 in Calm   3 mph 69% 0 in 0 W/m2
02:38 56.8 °F 46.4 °F 29.9 in Calm   1 mph 68% 0 in 0 W/m2
02:43 56.8 °F 46.4 °F 29.9 in SSE 0.9 mph 1 mph 68% 0 in 0 W/m2
02:48 56.8 °F 46.8 °F 29.9 in SSE 0.9 mph 1 mph 69% 0 in 0 W/m2
02:53 56.8 °F 46.8 °F 29.9 in SSE 0.9 mph 3 mph 69% 0 in 0 W/m2
02:58 56.8 °F 46.8 °F 29.9 in Calm   1 mph 69% 0 in 0 W/m2
03:03 56.7 °F 46.2 °F 29.9 in SSE 0.9 mph 3 mph 68% 0 in 0 W/m2
03:08 56.7 °F 46.2 °F 29.9 in Calm   3 mph 68% 0 in 0 W/m2
03:13 56.7 °F 46.6 °F 29.9 in Calm   1 mph 69% 0 in 0 W/m2
03:18 56.7 °F 46.6 °F 29.9 in Calm     69% 0 in 0 W/m2
03:23 56.5 °F 46.4 °F 29.9 in SSE 0.9 mph 1 mph 69% 0 in 0 W/m2
03:28 56.5 °F 46.4 °F 29.9 in Calm   1 mph 69% 0 in 0 W/m2
03:33 56.3 °F 46.2 °F 29.9 in Calm     69% 0 in 0 W/m2
03:38 56.1 °F 46 °F 29.9 in Calm     69% 0 in 0 W/m2
03:43 56.1 °F 46.4 °F 29.9 in Calm     70% 0 in 0 W/m2
03:48 56.1 °F 46.8 °F 29.9 in Calm     71% 0 in 0 W/m2
03:53 55.9 °F 46.2 °F 29.9 in Calm     70% 0 in 0 W/m2
03:58 55.9 °F 46.2 °F 29.9 in Calm   1 mph 70% 0 in 0 W/m2
04:03 55.8 °F 46.6 °F 29.9 in Calm     71% 0 in 0 W/m2
04:08 55.8 °F 46.6 °F 29.9 in Calm     71% 0 in 0 W/m2
04:13 55.8 °F 46.9 °F 29.9 in Calm     72% 0 in 0 W/m2
04:18 55.8 °F 46.9 °F 29.9 in Calm   1 mph 72% 0 in 0 W/m2
04:23 55.8 °F 46.9 °F 29.9 in SSE 0.9 mph 1 mph 72% 0 in 0 W/m2
04:28 55.9 °F 46.8 °F 29.9 in Calm     71% 0 in 0 W/m2
04:33 55.9 °F 46.2 °F 29.9 in Calm     70% 0 in 0 W/m2
04:38 56.1 °F 46.4 °F 29.9 in Calm     70% 0 in 0 W/m2
04:43 56.1 °F 46 °F 29.9 in Calm     69% 0 in 0 W/m2
04:48 56.3 °F 46.2 °F 29.9 in SSE 0.9 mph 3 mph 69% 0 in 0 W/m2
04:53 56.3 °F 46.2 °F 29.9 in SSE 0.9 mph 1 mph 69% 0 in 0 W/m2
04:58 56.1 °F 46.4 °F 29.9 in Calm   2 mph 70% 0 in 0 W/m2
05:03 56.1 °F 46.4 °F 29.9 in Calm     70% 0 in 0 W/m2
05:08 55.9 °F 46.2 °F 29.9 in Calm     70% 0 in 0 W/m2
05:13 55.9 °F 46.2 °F 29.9 in Calm     70% 0 in 0 W/m2
05:18 55.9 °F 46.8 °F 29.9 in Calm     71% 0 in 0 W/m2
05:23 56.1 °F 46.8 °F 29.9 in Calm     71% 0 in 0 W/m2
05:28 56.1 °F 46.8 °F 29.9 in Calm     71% 0 in 0 W/m2
05:33 56.1 °F 46.8 °F 29.9 in Calm     71% 0 in 0 W/m2
05:38 56.1 °F 46.8 °F 29.9 in Calm     71% 0 in 0 W/m2
05:43 56.1 °F 46.8 °F 29.9 in Calm     71% 0 in 7 W/m2
05:48 55.9 °F 47.1 °F 29.9 in Calm     72% 0 in 9 W/m2
05:53 55.9 °F 47.5 °F 29.9 in Calm     73% 0 in 11 W/m2
05:58 55.9 °F 47.5 °F 29.9 in Calm     73% 0 in 12 W/m2
06:03 55.8 °F 47.3 °F 29.9 in Calm     73% 0 in 11 W/m2
06:08 55.8 °F 47.7 °F 29.9 in Calm     74% 0 in 12 W/m2
06:13 55.6 °F 47.5 °F 29.9 in Calm     74% 0 in 18 W/m2
06:18 55.6 °F 47.5 °F 29.9 in Calm     74% 0 in 16 W/m2
06:23 55.4 °F 47.7 °F 29.9 in Calm     75% 0 in 21 W/m2
06:28 55.4 °F 48 °F 29.9 in Calm     76% 0 in 23 W/m2
06:33 55.2 °F 47.8 °F 29.9 in Calm     76% 0 in 26 W/m2
06:38 55.2 °F 48.2 °F 29.9 in Calm     77% 0 in 28 W/m2
06:43 55.2 °F 48.2 °F 29.9 in Calm     77% 0 in 32 W/m2
06:48 55.2 °F 48.6 °F 29.9 in Calm     78% 0 in 33 W/m2
06:53 55.6 °F 48.6 °F 29.9 in Calm     77% 0 in 35 W/m2
06:58 55.8 °F 48.7 °F 29.9 in Calm     77% 0 in 37 W/m2
07:03 55.9 °F 48.6 °F 29.9 in Calm     76% 0 in 39 W/m2
07:08 56.1 °F 48 °F 29.9 in Calm     74% 0 in 39 W/m2
07:13 56.7 °F 48.4 °F 29.9 in SSE 0.9 mph 2 mph 74% 0 in 40 W/m2
07:18 57 °F 47.7 °F 29.9 in SSE 0.9 mph 1 mph 71% 0 in 40 W/m2
07:23 57.6 °F 48.2 °F 29.9 in ENE 2.9 mph 3 mph 71% 0 in 42 W/m2
07:28 57.9 °F 48.2 °F 29.9 in East 2 mph 3 mph 70% 0 in 42 W/m2
07:33 58.3 °F 48.6 °F 29.9 in Calm   2 mph 70% 0 in 42 W/m2
07:38 58.5 °F 48.4 °F 29.9 in ESE 2 mph 3 mph 69% 0 in 44 W/m2
07:43 58.6 °F 48.6 °F 29.9 in Calm   1 mph 69% 0 in 216 W/m2
07:48 58.8 °F 48.2 °F 29.9 in Calm   4 mph 68% 0 in 239 W/m2
07:53 59.5 °F 48.9 °F 29.9 in Calm   2 mph 68% 0 in 251 W/m2
07:58 60.4 °F 49.1 °F 29.9 in Calm   4 mph 66% 0 in 221 W/m2
08:03 61.2 °F 48.9 °F 29.9 in East 0.9 mph 2 mph 64% 0 in 139 W/m2
08:08 61.7 °F 48.9 °F 29.9 in ENE 2.9 mph 3 mph 63% 0 in 77 W/m2
08:13 62.2 °F 48.6 °F 29.9 in East 2 mph 6 mph 61% 0 in 54 W/m2
08:18 63 °F 49.8 °F 29.9 in East 2 mph 3 mph 62% 0 in 54 W/m2
08:24 63.1 °F 49.8 °F 29.9 in Calm   6 mph 62% 0 in 54 W/m2
08:29 63.3 °F 49.6 °F 29.9 in Calm   2 mph 61% 0 in 54 W/m2
08:34 64 °F 50.7 °F 29.9 in ENE 0.9 mph 3 mph 62% 0 in 54 W/m2
08:39 64.6 °F 50.4 °F 29.9 in North 0.9 mph 4 mph 60% 0 in 54 W/m2
08:44 64.8 °F 50.2 °F 29.9 in East 2.9 mph 5 mph 59% 0 in 56 W/m2
08:49 64.9 °F 50.2 °F 29.9 in NE 2 mph 3 mph 59% 0 in 58 W/m2
08:54 65.3 °F 49.6 °F 29.9 in NE 2 mph 5 mph 57% 0 in 58 W/m2
08:59 65.7 °F 49.5 °F 29.9 in ESE 2 mph 4 mph 56% 0 in 74 W/m2
09:04 65.7 °F 50 °F 29.9 in SSW 2 mph 2 mph 57% 0 in 241 W/m2
09:09 65.7 °F 49.5 °F 29.9 in ENE 2 mph 6 mph 56% 0 in 399 W/m2
09:14 65.8 °F 49.6 °F 29.9 in ESE 0.9 mph 6 mph 56% 0 in 459 W/m2
09:19 66 °F 49.8 °F 29.9 in East 2 mph 3 mph 56% 0 in 476 W/m2
09:24 66 °F 50.4 °F 29.9 in NE 2.9 mph 6 mph 57% 0 in 494 W/m2
09:29 66.2 °F 50 °F 29.9 in NE 0.9 mph 2 mph 56% 0 in 510 W/m2
09:34 66.6 °F 50.4 °F 29.9 in ENE 0.9 mph 3 mph 56% 0 in 526 W/m2
09:39 66.9 °F 51.3 °F 29.9 in ESE 2 mph 3 mph 57% 0 in 538 W/m2
09:44 67.1 °F 50.9 °F 29.9 in NE 2 mph 3 mph 56% 0 in 548 W/m2
09:49 67.5 °F 51.3 °F 29.9 in East 2.9 mph 4 mph 56% 0 in 561 W/m2
09:54 67.5 °F 51.3 °F 29.9 in ENE 0.9 mph 3 mph 56% 0 in 529 W/m2
09:59 67.8 °F 52 °F 29.9 in East 2 mph 3 mph 57% 0 in 522 W/m2
10:04 68.2 °F 52.3 °F 29.9 in ESE 2 mph 6 mph 57% 0 in 77 W/m2
10:09 68.5 °F 52.2 °F 29.9 in ESE 2.9 mph 7 mph 56% 0 in 162 W/m2
10:14 68.9 °F 52.5 °F 29.9 in ESE 6 mph 6 mph 56% 0 in 621 W/m2
10:19 69.1 °F 52.7 °F 29.9 in East 2 mph 4 mph 56% 0 in 599 W/m2
10:24 69.4 °F 53.1 °F 29.9 in ENE 2.9 mph 5 mph 56% 0 in 622 W/m2
10:29 69.6 °F 53.8 °F 29.9 in ENE 0.9 mph 2 mph 57% 0 in 642 W/m2
10:34 70.2 °F 53.8 °F 29.9 in East 2 mph 6 mph 56% 0 in 663 W/m2
10:39 70.5 °F 54.1 °F 29.9 in East 2 mph 6 mph 56% 0 in 673 W/m2
10:44 70.5 °F 55 °F 29.9 in East 6 mph 7 mph 58% 0 in 689 W/m2
10:49 70.9 °F 54.3 °F 29.9 in ESE 0.9 mph 3 mph 56% 0 in 708 W/m2
10:54 71.2 °F 55.2 °F 29.9 in East 0.9 mph 3 mph 57% 0 in 715 W/m2
10:59 71.8 °F 55.2 °F 29.9 in ESE 2 mph 4 mph 56% 0 in 721 W/m2
11:04 71.6 °F 55 °F 29.9 in East 0.9 mph 4 mph 56% 0 in 735 W/m2
11:09 71.8 °F 56.1 °F 29.9 in ENE 2.9 mph 6 mph 58% 0 in 729 W/m2
11:14 72.1 °F 56.5 °F 29.9 in East 6 mph 7 mph 58% 0 in 737 W/m2
11:19 72.5 °F 56.8 °F 29.9 in ESE 0.9 mph 4 mph 58% 0 in 756 W/m2
11:24 72.7 °F 56.5 °F 29.9 in North 2 mph 4 mph 57% 0 in 765 W/m2
11:29 72.9 °F 56.7 °F 29.9 in WSW 2.9 mph 6 mph 57% 0 in 740 W/m2
11:34 72.9 °F 57.7 °F 29.9 in East 0.9 mph 4 mph 59% 0 in 800 W/m2
11:39 73.4 °F 57.2 °F 29.9 in ENE 4 mph 8 mph 57% 0 in 782 W/m2
11:44 73.6 °F 58.3 °F 29.9 in East 4 mph 6 mph 59% 0 in 800 W/m2
11:49 73.8 °F 58.5 °F 29.9 in East 2 mph 6 mph 59% 0 in 696 W/m2
11:54 74.3 °F 58.6 °F 29.9 in NE 2 mph 4 mph 58% 0 in 798 W/m2
11:59 74.5 °F 57.7 °F 29.9 in East 0.9 mph 6 mph 56% 0 in 828 W/m2
12:04 74.7 °F 58.5 °F 29.9 in East 2.9 mph 8 mph 57% 0 in 824 W/m2
12:09 74.8 °F 58.6 °F 29.9 in ENE 2.9 mph 5 mph 57% 0 in 842 W/m2
12:14 75 °F 59.2 °F 29.9 in NE 4.9 mph 5 mph 58% 0 in 789 W/m2
12:19 75.7 °F 60.4 °F 29.9 in East 2 mph 4 mph 59% 0 in 865 W/m2
12:24 76.3 °F 59.9 °F 29.9 in Calm   3 mph 57% 0 in 810 W/m2
12:29 76.8 °F 61.3 °F 29.9 in East 4 mph 7 mph 59% 0 in 816 W/m2
12:34 77.2 °F 60.8 °F 29.9 in NE 2.9 mph 4 mph 57% 0 in 870 W/m2
12:39 76.8 °F 59.9 °F 29.9 in NNE 2 mph 4 mph 56% 0 in 882 W/m2
12:44 76.6 °F 60.3 °F 29.9 in East 2.9 mph 3 mph 57% 0 in 891 W/m2
12:49 77 °F 60.6 °F 29.9 in ESE 4 mph 4 mph 57% 0 in 861 W/m2
12:54 77.2 °F 60.3 °F 29.9 in NNE 4 mph 7 mph 56% 0 in 854 W/m2
12:59 77.5 °F 61.2 °F 29.9 in East 4 mph 6 mph 57% 0 in 642 W/m2
13:04 77.7 °F 60.8 °F 29.9 in East 0.9 mph 7 mph 56% 0 in 896 W/m2
13:09 77.9 °F 61 °F 29.9 in North 4 mph 8 mph 56% 0 in 891 W/m2
13:14 77.7 °F 60.8 °F 29.9 in ESE 2.9 mph 8 mph 56% 0 in 895 W/m2
13:19 77.7 °F 61.7 °F 29.9 in East 2 mph 7 mph 58% 0 in 916 W/m2
13:24 78.1 °F 61.5 °F 29.9 in ESE 2.9 mph 7 mph 57% 0 in 946 W/m2
13:29 78.1 °F 61.2 °F 29.9 in ESE 4 mph 4 mph 56% 0 in 946 W/m2
13:34 78.1 °F 61.5 °F 29.9 in ESE 6.9 mph 8 mph 57% 0 in 202 W/m2
13:39 77.5 °F 61.5 °F 29.9 in WSW 0.9 mph 3 mph 58% 0 in 250 W/m2
13:44 77.7 °F 61.7 °F 29.9 in NNE 0.9 mph 4 mph 58% 0 in 986 W/m2
13:49 78.4 °F 61.9 °F 29.9 in SE 2.9 mph 4 mph 57% 0 in 257 W/m2
13:54 78.6 °F 62.1 °F 29.9 in East 4.9 mph 6 mph 57% 0 in 1049 W/m2
13:59 79.2 °F 62.1 °F 29.9 in ENE 0.9 mph 7 mph 56% 0 in 947 W/m2
14:04 79 °F 61.9 °F 29.9 in East 2 mph 8 mph 56% 0 in 1037 W/m2
14:09 78.4 °F 61.5 °F 29.9 in East 2 mph 4 mph 56% 0 in 239 W/m2
14:14 78.3 °F 61.7 °F 29.9 in Calm   4 mph 57% 0 in 311 W/m2
14:19 78.1 °F 62.1 °F 29.9 in WSW 0.9 mph 2 mph 58% 0 in 1102 W/m2
14:24 78.6 °F 63.1 °F 29.9 in East 6.9 mph 8 mph 59% 0 in 1116 W/m2
14:29 79.3 °F 62.8 °F 29.9 in East 2 mph 4 mph 57% 0 in 1053 W/m2
14:34 79.9 °F 61.7 °F 29.9 in SE 2.9 mph 7 mph 54% 0 in 227 W/m2
14:39 79.5 °F 61.9 °F 29.9 in SSE 2 mph 2 mph 55% 0 in 264 W/m2
14:44 79.2 °F 62.6 °F 29.9 in North 2 mph 3 mph 57% 0 in 1106 W/m2
14:49 79.5 °F 62.4 °F 29.9 in ENE 2.9 mph 5 mph 56% 0 in 1032 W/m2
14:54 80.2 °F 62.6 °F 29.9 in East 4 mph 8 mph 55% 0 in 998 W/m2
14:59 80.4 °F 61.7 °F 29.9 in WNW 2.9 mph 4 mph 53% 0 in 983 W/m2
15:04 80.6 °F 61.9 °F 29.9 in West 2.9 mph 8 mph 53% 0 in 1048 W/m2
15:09 80.8 °F 62.1 °F 29.9 in ENE 2 mph 5 mph 53% 0 in 594 W/m2
15:14 80.8 °F 62.1 °F 29.9 in ENE 2 mph 3 mph 53% 0 in 192 W/m2
15:19 79.9 °F 61.7 °F 29.9 in ESE 2 mph 5 mph 54% 0 in 213 W/m2
15:24 80.1 °F 61.9 °F 29.9 in Calm   6 mph 54% 0 in 1078 W/m2
15:29 80.4 °F 62.2 °F 29.9 in East 2.9 mph 9 mph 54% 0 in 473 W/m2
15:34 80.8 °F 61.5 °F 29.9 in Calm   3 mph 52% 0 in 1000 W/m2
15:39 81.1 °F 61.9 °F 29.9 in Calm   8 mph 52% 0 in 1016 W/m2
15:44 81.1 °F 61.9 °F 29.9 in East 2.9 mph 4 mph 52% 0 in 185 W/m2
15:49 80.4 °F 61.2 °F 29.9 in SE 2 mph 4 mph 52% 0 in 202 W/m2
15:54 80.1 °F 61.3 °F 29.9 in SE 4.9 mph 5 mph 53% 0 in 227 W/m2
15:59 79.5 °F 60.8 °F 29.9 in East 10.1 mph 10 mph 53% 0 in 199 W/m2
16:04 79.2 °F 61.2 °F 29.9 in East 8.1 mph 9 mph 54% 0 in 135 W/m2
16:09 78.6 °F 61.2 °F 29.9 in South 10 mph 10 mph 55% 0 in 125 W/m2
16:14 78.1 °F 60.1 °F 29.9 in North 0.9 mph 2 mph 54% 0 in 144 W/m2
16:19 77.9 °F 59.9 °F 29.9 in WNW 0.9 mph 4 mph 54% 0 in 158 W/m2
16:24 77.7 °F 60.3 °F 29.9 in East 0.9 mph 2 mph 55% 0 in 151 W/m2
16:29 77.7 °F 60.3 °F 29.9 in ENE 0.9 mph 4 mph 55% 0 in 134 W/m2
16:34 77.5 °F 60.1 °F 29.9 in ENE 2 mph 6 mph 55% 0 in 139 W/m2
16:39 77.4 °F 61 °F 29.9 in NE 0.9 mph 1 mph 57% 0 in 121 W/m2
16:44 77.4 °F 60.4 °F 29.9 in Calm   2 mph 56% 0 in 98 W/m2
16:49 77.2 °F 61.3 °F 29.9 in Calm   1 mph 58% 0 in 86 W/m2
16:54 76.8 °F 60.4 °F 29.9 in NE 2.9 mph 3 mph 57% 0 in 79 W/m2
16:59 76.8 °F 62.4 °F 29.9 in WSW 2 mph 2 mph 61% 0 in 77 W/m2
17:04 76.3 °F 62.8 °F 29.9 in West 0.9 mph 3 mph 63% 0 in 72 W/m2
17:09 75.7 °F 63.5 °F 29.9 in WSW 2 mph 2 mph 66% 0 in 70 W/m2
17:14 74.8 °F 63.5 °F 29.9 in Calm   2 mph 68% 0 in 70 W/m2
17:19 74.5 °F 63.1 °F 29.9 in WNW 0.9 mph 2 mph 68% 0 in 70 W/m2
17:24 74.1 °F 64 °F 29.9 in Calm     71% 0 in 65 W/m2
17:29 74.1 °F 64.6 °F 29.9 in WNW 0.9 mph 1 mph 72% 0 in 49 W/m2
17:34 73.8 °F 64.9 °F 29.9 in West 0.9 mph 4 mph 74% 0 in 35 W/m2
17:39 72.3 °F 64.8 °F 29.9 in West 4 mph 8 mph 77% 0.18 in 32 W/m2
17:44 70.3 °F 64.2 °F 29.9 in Calm   3 mph 81% 0.28 in 37 W/m2
17:49 69.3 °F 64.2 °F 29.9 in SSW 0.9 mph 8 mph 84% 0.32 in 49 W/m2
17:54 68.4 °F 64.4 °F 29.9 in SW 0.9 mph 3 mph 87% 0.33 in 56 W/m2
17:59 67.6 °F 64.2 °F 29.9 in WSW 2 mph 2 mph 89% 0.33 in 77 W/m2
18:04 67.3 °F 64.2 °F 29.9 in WSW 2.9 mph 3 mph 90% 0.33 in 109 W/m2
18:09 66.7 °F 63.7 °F 29.9 in Calm   3 mph 90% 0.33 in 163 W/m2
18:14 66.7 °F 64 °F 29.9 in WSW 0.9 mph 4 mph 91% 0.33 in 218 W/m2
18:19 66.9 °F 64.6 °F 29.9 in WSW 2.9 mph 4 mph 92% 0.33 in 290 W/m2
18:24 67.5 °F 65.1 °F 29.9 in West 0.9 mph 4 mph 92% 0.33 in 181 W/m2
18:29 67.8 °F 65.1 °F 29.9 in West 2 mph 5 mph 91% 0.33 in 190 W/m2
18:34 68.2 °F 65.1 °F 29.9 in West 2 mph 3 mph 90% 0.33 in 151 W/m2
18:39 68.2 °F 64.4 °F 29.9 in West 2 mph 3 mph 88% 0.15 in 163 W/m2
18:44 68.2 °F 64.4 °F 29.9 in Calm   6 mph 88% 0.03 in 156 W/m2
Juneau County Weather
Compliments of Weather Underground - 2 mb